PBO Station Position Time Series. Reference Frame : NAM14
Format Version,1.1.0
4-character ID,P559
Station name,Antelope__CS2005
Begin Date, 2005-11-05
End Date, 2013-03-14
Release Date, 2019-08-30
Reference position, 34.8389095732 North Latitude, -118.6175983279 East Longitude, 927.70243 meters elevation,
Date, North (mm), East (mm), Vertical (mm), North Std. Deviation (mm), East Std. Deviation (mm),              Vertical Std. Deviation (mm), Quality,
2005-11-05,0.00, 0.00, 0.00, 2.06, 1.77, 7.78, repro,
2005-11-06,3.22, -3.96, -2.31, 2.08, 1.83, 7.90, repro,
2005-11-07,2.96, -5.85, -2.29, 2.08, 1.82, 7.93, repro,
2005-11-08,4.93, -3.74, -1.87, 2.07, 1.75, 7.77, repro,
2005-11-09,2.82, -4.67, 1.29, 2.13, 1.87, 8.08, repro,
2005-11-10,2.48, -5.75, -7.00, 2.25, 1.86, 8.47, repro,
2005-11-11,-0.03, 0.66, -6.20, 2.25, 1.89, 8.50, repro,
2005-11-12,2.71, -7.00, -8.99, 2.03, 1.72, 7.71, repro,
2005-11-13,2.64, -3.61, -14.53, 2.15, 1.80, 8.05, repro,
2005-11-14,3.54, -5.82, -4.31, 2.04, 1.70, 7.58, repro,
2005-11-15,2.86, -4.19, -8.69, 1.99, 1.62, 7.39, repro,
2005-11-16,3.59, -4.87, -15.93, 2.04, 1.71, 7.63, repro,
2005-11-17,2.59, -4.37, -13.09, 1.99, 1.63, 7.48, repro,
2005-11-18,2.56, -4.51, -9.68, 1.97, 1.63, 7.42, repro,
2005-11-19,2.83, -5.35, -11.94, 1.97, 1.62, 7.37, repro,
2005-11-20,2.85, -3.85, -14.49, 2.03, 1.70, 7.65, repro,
2005-11-21,2.83, -6.45, -6.61, 2.14, 1.71, 8.01, repro,
2005-11-22,1.49, -4.86, -14.31, 2.04, 1.73, 7.79, repro,
2005-11-23,2.34, -4.83, -5.93, 2.04, 1.72, 7.78, repro,
2005-11-24,1.90, -5.43, -5.90, 1.97, 1.62, 7.42, repro,
2005-11-25,3.19, -1.41, -9.17, 2.01, 1.67, 7.61, repro,
2005-11-26,10.41, -15.11, 6.44, 2.16, 1.79, 8.15, repro,
2005-11-27,4.52, -7.45, -1.78, 2.02, 1.68, 7.65, repro,
2005-11-28,2.38, -4.84, -7.37, 2.07, 1.74, 7.87, repro,
2005-11-29,5.99, -14.79, -15.85, 2.12, 1.77, 8.08, repro,
2005-11-30,0.33, -8.61, -2.68, 2.02, 1.70, 7.61, repro,
2005-12-01,0.78, -4.50, -12.54, 2.02, 1.65, 7.45, repro,
2005-12-02,0.69, -4.36, -11.95, 2.01, 1.66, 7.49, repro,
2005-12-03,-5.11, 3.32, -5.27, 2.01, 1.66, 7.56, repro,
2005-12-04,2.18, -4.32, -12.70, 2.02, 1.65, 7.46, repro,
2005-12-05,2.31, -4.58, -17.88, 2.00, 1.65, 7.48, repro,
2005-12-06,2.93, -5.65, -14.52, 2.08, 1.72, 7.72, repro,
2005-12-07,1.86, -4.61, -15.66, 2.03, 1.70, 7.62, repro,
2005-12-08,2.25, -4.57, -8.36, 2.02, 1.70, 7.63, repro,
2005-12-09,2.28, -4.16, -11.76, 2.01, 1.66, 7.52, repro,
2005-12-10,2.11, -5.08, -12.65, 2.00, 1.66, 7.52, repro,
2005-12-11,3.21, -4.90, -8.36, 1.99, 1.66, 7.49, repro,
2005-12-12,2.97, -5.11, -6.96, 2.01, 1.69, 7.61, repro,
2005-12-13,1.89, -4.06, -6.41, 1.97, 1.61, 7.34, repro,
2005-12-14,2.31, -5.12, -9.78, 2.01, 1.69, 7.60, repro,
2005-12-15,2.58, -4.86, -11.38, 2.05, 1.68, 7.63, repro,
2005-12-16,2.57, -5.43, -9.72, 1.99, 1.62, 7.47, repro,
2005-12-17,1.51, -6.31, -14.63, 2.11, 1.78, 7.84, repro,
2005-12-18,2.20, -5.83, -10.37, 2.06, 1.78, 7.82, repro,
2005-12-19,3.20, -5.36, -19.38, 2.14, 1.82, 7.96, repro,
2005-12-20,3.39, -3.65, -14.94, 2.04, 1.81, 7.70, repro,
2005-12-21,3.73, -5.14, -12.61, 2.10, 1.79, 7.87, repro,
2005-12-22,1.26, -4.68, -6.80, 2.13, 1.86, 8.09, repro,
2005-12-23,2.07, -2.13, -6.34, 2.10, 1.76, 7.77, repro,
2005-12-24,3.00, -5.85, -10.50, 2.25, 1.91, 8.34, repro,
2005-12-25,1.87, -5.04, -7.39, 2.08, 1.73, 7.77, repro,
2005-12-26,1.16, -5.76, -8.27, 2.02, 1.66, 7.49, repro,
2005-12-27,0.39, -3.38, -7.08, 2.16, 1.81, 8.02, repro,
2005-12-28,3.19, -6.51, -15.05, 2.06, 1.74, 7.69, repro,
2005-12-29,-1.82, -2.99, 4.80, 2.18, 1.86, 8.26, repro,
2005-12-30,-2.95, -4.34, 3.27, 2.16, 1.82, 7.94, repro,
2005-12-31,0.82, -4.15, -7.42, 2.18, 1.87, 8.28, repro,
2006-01-01,1.38, -5.68, -3.33, 2.20, 1.88, 8.28, repro,
2006-01-02,-1.78, -5.69, 2.64, 2.06, 1.68, 7.58, repro,
2006-01-03,3.70, -6.18, -11.25, 2.27, 1.96, 8.42, repro,
2006-01-04,1.76, -3.29, -6.31, 2.21, 2.02, 8.35, repro,
2006-01-05,2.83, -4.75, -13.83, 2.06, 1.78, 7.65, repro,
2006-01-06,2.99, -5.96, -11.98, 2.30, 1.97, 8.79, repro,
2006-01-07,0.13, -1.89, -7.85, 2.10, 1.79, 7.70, repro,
2006-01-08,-4.81, 10.22, 4.72, 2.11, 1.82, 7.84, repro,
2006-01-09,3.80, -5.10, -13.60, 2.16, 1.82, 8.04, repro,
2006-01-10,2.42, -5.13, -9.45, 2.18, 1.88, 8.06, repro,
2006-01-11,0.63, -3.35, 2.23, 2.14, 1.82, 8.00, repro,
2006-01-12,0.08, -5.16, -2.20, 2.05, 1.71, 7.53, repro,
2006-01-13,2.58, -4.78, -4.83, 2.26, 1.94, 8.52, repro,
2006-01-14,4.86, -4.17, 1.54, 2.06, 1.74, 7.65, repro,
2006-01-15,4.53, -6.53, 0.90, 2.05, 1.73, 7.58, repro,
2006-01-16,4.57, -6.66, -9.11, 2.05, 1.74, 7.76, repro,
2006-01-17,3.22, -5.60, -7.81, 2.13, 1.82, 7.80, repro,
2006-01-18,0.55, -1.04, -1.93, 2.01, 1.65, 7.45, repro,
2006-01-19,5.82, -12.45, -0.45, 2.08, 1.69, 7.81, repro,
2006-01-20,2.87, -5.24, -15.82, 2.06, 1.69, 7.77, repro,
2006-01-21,1.26, -4.25, -2.97, 2.04, 1.67, 7.48, repro,
2006-01-22,1.81, -5.11, -9.34, 1.99, 1.62, 7.29, repro,
2006-01-23,4.38, -5.67, -9.95, 1.98, 1.60, 7.27, repro,
2006-01-24,3.80, -4.49, -13.35, 2.04, 1.65, 7.55, repro,
2006-01-25,2.47, -4.99, -8.46, 1.94, 1.58, 7.23, repro,
2006-01-26,3.97, -5.78, -15.91, 1.94, 1.58, 7.20, repro,
2006-01-27,4.27, -10.05, 2.48, 1.94, 1.60, 7.26, repro,
2006-01-28,-1.51, -3.73, -12.69, 1.94, 1.59, 7.20, repro,
2006-01-29,1.19, -4.86, -16.74, 1.99, 1.60, 7.42, repro,
2006-01-30,2.81, -5.77, -10.37, 1.96, 1.58, 7.27, repro,
2006-01-31,2.31, -4.39, 0.66, 1.96, 1.57, 7.23, repro,
2006-02-01,-0.12, -2.22, -0.10, 1.98, 1.63, 7.46, repro,
2006-02-02,7.71, -17.46, 25.78, 2.01, 1.65, 7.62, repro,
2006-02-03,1.06, -5.40, -4.42, 2.08, 1.64, 7.77, repro,
2006-02-04,2.27, -4.37, -9.79, 1.97, 1.59, 7.36, repro,
2006-02-05,1.78, -3.40, -7.86, 2.01, 1.63, 7.45, repro,
2006-02-06,2.26, -4.94, -13.25, 1.96, 1.57, 7.28, repro,
2006-02-07,2.95, -5.09, -14.83, 1.95, 1.58, 7.33, repro,
2006-02-08,3.16, -4.96, -18.27, 1.94, 1.57, 7.29, repro,
2006-02-09,2.76, -5.36, -14.24, 2.01, 1.58, 7.53, repro,
2006-02-10,2.66, -5.04, -13.25, 2.10, 1.60, 7.76, repro,
2006-02-11,2.86, -4.69, -19.07, 1.96, 1.57, 7.34, repro,
2006-02-12,2.88, -4.84, -17.72, 1.96, 1.57, 7.35, repro,
2006-02-13,2.82, -4.63, -13.93, 1.95, 1.58, 7.35, repro,
2006-02-14,2.26, -4.59, -9.98, 1.96, 1.56, 7.31, repro,
2006-02-15,2.50, -3.39, -10.78, 1.95, 1.57, 7.36, repro,
2006-02-16,-0.26, -2.54, -6.68, 2.02, 1.62, 7.52, repro,
2006-02-17,2.53, -5.43, -12.17, 1.95, 1.58, 7.30, repro,
2006-02-18,1.24, -5.20, -15.54, 1.96, 1.58, 7.31, repro,
2006-02-19,1.87, -5.53, -13.74, 1.95, 1.57, 7.29, repro,
2006-02-20,3.08, -4.61, -9.03, 1.94, 1.57, 7.29, repro,
2006-02-21,3.44, -5.08, -6.04, 1.98, 1.58, 7.43, repro,
2006-02-22,3.65, -3.90, -4.08, 1.98, 1.57, 7.37, repro,
2006-02-23,3.07, -4.39, -10.69, 1.95, 1.58, 7.30, repro,
2006-02-24,2.38, -4.45, -12.81, 1.94, 1.58, 7.26, repro,
2006-02-25,2.26, -4.15, -10.91, 1.95, 1.59, 7.30, repro,
2006-02-26,3.20, -4.72, -10.11, 1.96, 1.59, 7.34, repro,
2006-02-27,4.48, -6.38, -13.96, 1.99, 1.62, 7.43, repro,
2006-02-28,4.55, -5.71, -7.73, 2.01, 1.63, 7.46, repro,
2006-03-01,1.13, -5.54, -11.09, 2.02, 1.67, 7.48, repro,
2006-03-02,2.96, -4.13, -12.25, 1.93, 1.59, 7.26, repro,
2006-03-03,3.92, -3.66, -5.09, 2.03, 1.61, 7.58, repro,
2006-03-04,2.15, -4.95, -8.88, 1.95, 1.61, 7.36, repro,
2006-03-05,3.13, -4.00, -12.73, 1.95, 1.61, 7.36, repro,
2006-03-06,3.22, -4.37, -8.65, 1.94, 1.60, 7.31, repro,
2006-03-07,3.92, -5.31, -9.70, 1.93, 1.60, 7.31, repro,
2006-03-08,4.84, -7.80, -2.04, 1.95, 1.61, 7.36, repro,
2006-03-09,0.30, -3.13, 10.98, 1.95, 1.61, 7.31, repro,
2006-03-10,3.68, -8.60, -2.40, 1.95, 1.60, 7.31, repro,
2006-03-11,0.97, -4.22, -3.69, 1.98, 1.61, 7.39, repro,
2006-03-12,3.12, -5.11, -11.49, 1.97, 1.61, 7.40, repro,
2006-03-13,2.72, -5.25, -10.58, 1.98, 1.62, 7.41, repro,
2006-03-14,1.47, -4.96, -12.97, 2.00, 1.67, 7.55, repro,
2006-03-15,2.49, -4.38, -11.78, 1.97, 1.62, 7.35, repro,
2006-03-16,2.91, -4.21, -12.96, 2.05, 1.66, 7.54, repro,
2006-03-17,1.30, -5.34, -12.60, 2.08, 1.72, 7.75, repro,
2006-03-18,-1.94, 0.06, -7.38, 1.97, 1.64, 7.33, repro,
2006-03-19,-0.38, -4.97, 0.10, 1.96, 1.64, 7.37, repro,
2006-03-20,2.50, -6.06, -4.84, 1.96, 1.65, 7.37, repro,
2006-03-21,-0.07, -4.34, 1.30, 1.98, 1.65, 7.50, repro,
2006-03-22,0.70, -8.14, -6.28, 2.01, 1.71, 7.59, repro,
2006-03-23,2.49, -4.25, -15.47, 2.01, 1.66, 7.53, repro,
2006-03-24,2.68, -4.72, -10.59, 2.02, 1.66, 7.59, repro,
2006-03-25,3.05, -4.55, -3.72, 2.04, 1.67, 7.64, repro,
2006-03-26,1.99, -3.70, -2.26, 2.05, 1.70, 7.78, repro,
2006-03-27,2.66, -4.13, -2.11, 2.02, 1.68, 7.62, repro,
2006-03-28,3.54, -5.81, 2.77, 1.95, 1.64, 7.40, repro,
2006-03-29,3.35, -4.36, -9.17, 1.92, 1.65, 7.44, repro,
2006-03-30,3.48, -4.25, -5.70, 1.91, 1.62, 7.31, repro,
2006-03-31,2.40, -5.29, -11.02, 1.91, 1.62, 7.29, repro,
2006-04-01,3.04, -5.83, -3.50, 1.92, 1.61, 7.34, repro,
2006-04-02,3.63, -6.21, -10.30, 1.94, 1.66, 7.52, repro,
2006-04-03,7.06, -3.94, -3.58, 1.91, 1.61, 7.31, repro,
2006-04-04,8.38, -4.65, 9.74, 1.94, 1.63, 7.38, repro,
2006-04-05,3.29, -5.70, -3.80, 1.93, 1.66, 7.52, repro,
2006-04-06,4.74, -8.98, -16.92, 1.94, 1.65, 7.50, repro,
2006-04-07,3.16, -6.65, -6.93, 2.05, 1.74, 7.90, repro,
2006-04-08,3.42, -6.05, -12.27, 2.04, 1.66, 7.77, repro,
2006-04-09,2.84, -5.89, -12.41, 1.92, 1.61, 7.36, repro,
2006-04-10,3.36, -5.99, -6.56, 1.90, 1.61, 7.26, repro,
2006-04-11,4.68, -5.24, -1.92, 1.98, 1.64, 7.61, repro,
2006-04-12,4.60, -6.36, -12.62, 2.03, 1.69, 7.83, repro,
2006-04-13,2.22, -5.29, -3.45, 2.06, 1.75, 7.99, repro,
2006-04-14,5.99, -5.79, -0.36, 1.98, 1.63, 7.46, repro,
2006-04-15,3.35, -5.29, -0.26, 1.96, 1.63, 7.42, repro,
2006-04-16,3.35, -5.79, -5.24, 1.90, 1.61, 7.29, repro,
2006-04-17,-0.78, -4.34, -5.17, 1.93, 1.62, 7.39, repro,
2006-04-18,2.82, -5.17, -7.26, 1.94, 1.65, 7.54, repro,
2006-04-19,3.14, -5.79, -6.47, 1.92, 1.62, 7.37, repro,
2006-04-20,2.80, -6.29, -2.75, 1.95, 1.66, 7.55, repro,
2006-04-21,5.75, -5.46, -1.26, 1.91, 1.61, 7.30, repro,
2006-04-22,3.13, -7.22, -11.98, 1.91, 1.61, 7.31, repro,
2006-04-23,3.19, -5.47, -4.12, 1.97, 1.73, 7.68, repro,
2006-04-24,3.37, -7.40, -5.10, 1.94, 1.66, 7.49, repro,
2006-04-25,2.16, -5.73, -6.62, 1.96, 1.74, 7.68, repro,
2006-04-26,1.31, -5.91, -6.53, 1.96, 1.67, 7.55, repro,
2006-04-27,2.48, -7.74, -10.04, 1.99, 1.67, 7.53, repro,
2006-04-28,2.48, -6.08, -12.64, 2.03, 1.68, 7.65, repro,
2006-04-29,2.06, -5.43, -9.09, 2.00, 1.75, 7.76, repro,
2006-04-30,2.52, -3.37, -3.80, 1.92, 1.62, 7.39, repro,
2006-05-01,4.52, -5.06, -13.09, 1.92, 1.61, 7.34, repro,
2006-05-02,1.69, -5.27, -8.99, 1.93, 1.61, 7.33, repro,
2006-05-03,5.37, -7.61, -15.77, 1.92, 1.61, 7.34, repro,
2006-05-04,3.52, -7.18, -6.30, 1.92, 1.61, 7.36, repro,
2006-05-05,1.88, -3.97, -1.96, 1.92, 1.62, 7.41, repro,
2006-05-06,4.63, -7.44, -10.75, 1.92, 1.62, 7.38, repro,
2006-05-07,3.24, -6.06, -9.63, 1.92, 1.61, 7.38, repro,
2006-05-08,3.07, -6.26, -3.46, 1.98, 1.63, 7.55, repro,
2006-05-09,-1.08, -4.91, -0.11, 2.16, 1.83, 8.19, repro,
2006-05-10,3.43, -5.49, -8.54, 1.92, 1.61, 7.37, repro,
2006-05-11,2.97, -7.13, -8.82, 1.92, 1.62, 7.42, repro,
2006-05-12,2.49, -7.17, -3.60, 1.92, 1.61, 7.37, repro,
2006-05-13,1.98, -3.13, -5.11, 1.93, 1.61, 7.37, repro,
2006-05-14,2.47, -7.54, -7.58, 1.99, 1.64, 7.52, repro,
2006-05-15,0.93, -5.58, -3.47, 1.91, 1.61, 7.34, repro,
2006-05-16,1.27, -3.47, -3.77, 1.98, 1.73, 7.76, repro,
2006-05-17,2.73, -6.17, -6.18, 1.99, 1.71, 7.66, repro,
2006-05-18,3.21, -7.01, -8.22, 1.99, 1.63, 7.53, repro,
2006-05-19,3.46, -6.58, -0.44, 2.06, 1.65, 7.71, repro,
2006-05-20,1.01, -6.03, -2.58, 2.02, 1.63, 7.59, repro,
2006-05-21,4.37, -7.80, -4.03, 2.05, 1.65, 7.69, repro,
2006-05-22,2.47, -6.67, 5.21, 2.02, 1.71, 7.75, repro,
2006-05-23,5.01, -7.39, -10.75, 1.98, 1.63, 7.49, repro,
2006-05-24,1.37, -6.47, -4.62, 2.00, 1.62, 7.52, repro,
2006-05-25,4.32, -7.62, -5.15, 2.21, 1.70, 8.10, repro,
2006-05-26,2.33, -0.65, 9.09, 2.08, 1.69, 7.88, repro,
2006-05-27,-5.59, -0.11, 5.29, 2.00, 1.65, 7.61, repro,
2006-05-28,-0.04, -3.34, 0.66, 2.01, 1.64, 7.59, repro,
2006-05-29,2.65, -5.47, -2.43, 2.00, 1.64, 7.56, repro,
2006-05-30,1.71, -6.14, -2.55, 2.12, 1.75, 7.94, repro,
2006-05-31,1.08, -5.76, -7.17, 2.09, 1.70, 7.86, repro,
2006-06-01,1.91, -5.15, -6.46, 2.03, 1.66, 7.68, repro,
2006-06-02,2.58, -6.12, -4.28, 2.10, 1.72, 7.89, repro,
2006-06-03,2.58, -4.71, -3.30, 2.07, 1.70, 7.89, repro,
2006-06-04,3.42, -5.23, 2.73, 2.10, 1.68, 7.74, repro,
2006-06-05,2.60, -5.40, 4.31, 2.07, 1.67, 7.73, repro,
2006-06-06,0.56, -6.69, -2.14, 2.06, 1.66, 7.75, repro,
2006-06-07,1.63, -6.02, -0.12, 2.11, 1.71, 7.91, repro,
2006-06-08,2.39, -6.38, -12.12, 1.98, 1.63, 7.47, repro,
2006-06-09,2.73, -5.89, -1.15, 2.06, 1.69, 7.76, repro,
2006-06-10,3.74, -7.80, -2.55, 2.02, 1.64, 7.58, repro,
2006-06-11,1.40, -5.47, -2.76, 2.05, 1.66, 7.73, repro,
2006-06-12,3.58, -6.52, 0.57, 2.06, 1.72, 7.80, repro,
2006-06-13,4.73, -6.16, -2.90, 2.04, 1.65, 7.61, repro,
2006-06-14,-0.70, -4.31, -1.24, 2.00, 1.63, 7.53, repro,
2006-06-15,-3.98, -1.46, 4.62, 2.01, 1.67, 7.69, repro,
2006-06-16,2.87, -3.91, 0.32, 2.02, 1.63, 7.57, repro,
2006-06-17,0.96, -5.50, -3.10, 2.04, 1.67, 7.66, repro,
2006-06-18,1.08, -6.74, 9.91, 2.07, 1.72, 7.92, repro,
2006-06-19,0.52, -6.19, 4.36, 2.02, 1.66, 7.74, repro,
2006-06-20,2.66, -7.10, -1.84, 2.01, 1.67, 7.76, repro,
2006-06-21,2.68, -5.49, -2.75, 2.02, 1.66, 7.70, repro,
2006-06-22,2.12, -4.78, 2.77, 2.07, 1.71, 7.91, repro,
2006-06-23,1.49, -5.12, -7.58, 2.09, 1.75, 8.08, repro,
2006-06-24,1.46, -5.90, -6.55, 2.04, 1.71, 7.86, repro,
2006-06-25,2.24, -4.09, -6.15, 2.07, 1.73, 8.10, repro,
2006-06-26,1.90, -5.31, 3.86, 2.07, 1.74, 7.90, repro,
2006-06-27,3.52, -6.47, -3.66, 2.13, 1.79, 8.09, repro,
2006-06-28,0.83, -6.44, -5.41, 2.06, 1.73, 7.98, repro,
2006-06-29,2.17, -4.67, 3.83, 1.97, 1.70, 7.70, repro,
2006-06-30,2.01, -5.73, -2.41, 2.02, 1.69, 7.87, repro,
2006-07-01,3.32, -6.63, -5.61, 2.03, 1.68, 7.82, repro,
2006-07-02,3.77, -4.13, -5.76, 2.02, 1.67, 7.76, repro,
2006-07-03,2.07, -6.33, -4.48, 1.99, 1.64, 7.68, repro,
2006-07-04,1.86, -5.71, -10.40, 1.98, 1.64, 7.68, repro,
2006-07-05,1.56, -5.05, -6.49, 1.98, 1.64, 7.67, repro,
2006-07-06,1.13, -4.85, -7.71, 2.00, 1.63, 7.67, repro,
2006-07-07,1.55, -5.12, -8.59, 1.98, 1.62, 7.59, repro,
2006-07-08,2.15, -3.23, -6.54, 1.98, 1.63, 7.64, repro,
2006-07-09,0.58, -4.56, -2.59, 2.00, 1.64, 7.71, repro,
2006-07-10,2.09, -5.10, -3.21, 2.00, 1.65, 7.73, repro,
2006-07-11,3.25, -5.68, -1.22, 1.99, 1.63, 7.68, repro,
2006-07-12,1.50, -5.52, -14.09, 1.99, 1.62, 7.62, repro,
2006-07-13,2.13, -6.21, -7.52, 1.99, 1.63, 7.71, repro,
2006-07-14,2.35, -5.13, -4.99, 1.99, 1.63, 7.69, repro,
2006-07-15,2.76, -6.17, -4.54, 1.98, 1.65, 7.74, repro,
2006-07-16,2.45, -5.24, -1.00, 1.99, 1.65, 7.74, repro,
2006-07-17,2.69, -5.71, -6.72, 2.07, 1.74, 8.06, repro,
2006-07-18,1.60, -7.00, -3.75, 1.92, 1.60, 7.35, repro,
2006-07-19,2.83, -5.41, -3.00, 2.06, 1.73, 8.04, repro,
2006-07-20,2.39, -5.47, -2.99, 1.96, 1.65, 7.65, repro,
2006-07-21,2.10, -6.13, -6.67, 1.98, 1.68, 7.65, repro,
2006-07-22,1.91, -4.25, -3.28, 2.05, 1.69, 7.89, repro,
2006-07-23,2.48, -5.34, -2.62, 1.93, 1.62, 7.37, repro,
2006-07-24,2.94, -7.48, 5.87, 1.99, 1.70, 7.74, repro,
2006-07-25,3.17, -5.64, -7.56, 1.93, 1.60, 7.36, repro,
2006-07-26,2.94, -4.05, 1.17, 1.96, 1.68, 7.51, repro,
2006-07-27,1.64, -4.95, -5.41, 1.93, 1.62, 7.42, repro,
2006-07-28,3.57, -5.14, -6.92, 1.96, 1.67, 7.49, repro,
2006-07-29,4.21, -7.03, -6.75, 1.93, 1.62, 7.44, repro,
2006-07-30,0.34, -4.24, 3.68, 1.98, 1.67, 7.57, repro,
2006-07-31,1.46, -4.22, -7.97, 1.94, 1.61, 7.45, repro,
2006-08-01,1.39, -3.58, 7.08, 1.93, 1.63, 7.45, repro,
2006-08-02,2.31, -4.65, -3.51, 2.04, 1.78, 7.90, repro,
2006-08-03,1.13, -5.72, -5.35, 2.00, 1.72, 7.82, repro,
2006-08-04,1.86, -6.14, -10.34, 2.03, 1.67, 7.80, repro,
2006-08-05,2.20, -5.41, -5.51, 2.03, 1.78, 7.92, repro,
2006-08-06,2.11, -4.01, -9.91, 1.96, 1.66, 7.66, repro,
2006-08-07,1.33, -5.71, -7.14, 1.96, 1.67, 7.67, repro,
2006-08-08,2.83, -5.52, -10.54, 2.01, 1.74, 7.67, repro,
2006-08-09,2.77, -4.61, -2.90, 1.97, 1.67, 7.52, repro,
2006-08-10,2.61, -5.25, -0.12, 2.00, 1.64, 7.70, repro,
2006-08-11,2.50, -5.66, -4.63, 1.94, 1.63, 7.46, repro,
2006-08-12,3.36, -4.76, -6.88, 1.94, 1.62, 7.42, repro,
2006-08-13,2.39, -5.63, -2.83, 1.96, 1.68, 7.53, repro,
2006-08-14,2.29, -5.75, 0.59, 1.97, 1.68, 7.52, repro,
2006-08-15,3.21, -5.94, -5.32, 2.05, 1.70, 7.73, repro,
2006-08-16,2.36, -4.84, -6.36, 1.97, 1.68, 7.57, repro,
2006-08-17,3.36, -5.72, 0.36, 1.95, 1.68, 7.52, repro,
2006-08-18,2.66, -5.94, -2.22, 1.98, 1.72, 7.66, repro,
2006-08-19,2.73, -4.34, -5.00, 1.92, 1.61, 7.32, repro,
2006-08-20,3.28, -4.90, -8.53, 2.02, 1.71, 7.68, repro,
2006-08-21,2.42, -5.36, -2.87, 1.93, 1.65, 7.46, repro,
2006-08-22,1.32, -4.48, -5.42, 1.94, 1.66, 7.52, repro,
2006-08-23,3.59, -4.99, -0.71, 1.93, 1.64, 7.40, repro,
2006-08-24,2.01, -5.22, -4.55, 1.94, 1.64, 7.42, repro,
2006-08-25,2.44, -5.43, 2.81, 1.98, 1.68, 7.69, repro,
2006-08-26,2.82, -6.20, 0.19, 1.99, 1.72, 7.84, repro,
2006-08-27,2.80, -4.62, -3.54, 1.99, 1.73, 7.82, repro,
2006-08-28,2.36, -4.09, -5.86, 2.00, 1.73, 7.84, repro,
2006-08-29,2.34, -3.79, -8.50, 2.00, 1.73, 7.87, repro,
2006-08-30,2.52, -5.81, -1.73, 2.07, 1.74, 8.01, repro,
2006-08-31,1.74, -5.25, -0.92, 1.98, 1.73, 7.80, repro,
2006-09-01,2.18, -5.19, -3.00, 2.03, 1.76, 7.98, repro,
2006-09-02,2.58, -4.35, -3.97, 2.00, 1.73, 7.83, repro,
2006-09-03,1.88, -4.10, -9.32, 1.99, 1.73, 7.86, repro,
2006-09-04,2.34, -4.82, -7.83, 2.07, 1.77, 8.03, repro,
2006-09-05,2.71, -3.60, -12.20, 2.06, 1.77, 8.02, repro,
2006-09-06,3.82, -3.95, -6.48, 2.03, 1.80, 8.02, repro,
2006-09-07,1.37, -4.86, 2.27, 2.03, 1.78, 8.01, repro,
2006-09-08,2.75, -5.01, -5.73, 2.03, 1.77, 7.98, repro,
2006-09-09,2.94, -6.34, -8.40, 1.95, 1.69, 7.56, repro,
2006-09-10,3.55, -4.71, -5.47, 1.98, 1.69, 7.61, repro,
2006-09-11,3.08, -4.68, -6.02, 1.96, 1.69, 7.57, repro,
2006-09-12,3.20, -4.64, -9.05, 1.96, 1.70, 7.60, repro,
2006-09-13,1.84, -5.03, 1.40, 1.97, 1.69, 7.59, repro,
2006-09-14,1.48, -5.16, 5.08, 2.06, 1.77, 7.88, repro,
2006-09-15,0.30, -2.90, -7.01, 2.02, 1.68, 7.69, repro,
2006-09-16,-0.11, -2.18, -6.04, 2.05, 1.81, 7.99, repro,
2006-09-17,3.15, -4.89, -2.09, 1.95, 1.65, 7.51, repro,
2006-09-18,2.82, -4.74, -1.26, 1.94, 1.65, 7.47, repro,
2006-09-19,2.82, -5.36, -3.05, 1.92, 1.64, 7.40, repro,
2006-09-20,2.03, -2.17, -9.71, 1.95, 1.65, 7.50, repro,
2006-09-21,0.24, 0.53, -1.59, 1.97, 1.69, 7.59, repro,
2006-09-22,-3.51, 0.17, -0.56, 2.11, 1.83, 8.15, repro,
2006-09-23,3.62, -5.73, -5.50, 2.05, 1.75, 7.93, repro,
2006-09-24,3.88, -4.86, -4.08, 2.11, 1.76, 8.21, repro,
2006-09-25,3.23, -4.10, -6.77, 2.07, 1.74, 7.98, repro,
2006-09-26,2.55, -5.27, -7.42, 2.01, 1.71, 7.69, repro,
2006-09-27,3.37, -6.11, -10.15, 2.03, 1.71, 7.79, repro,
2006-09-28,2.77, -5.64, -3.19, 2.07, 1.79, 7.87, repro,
2006-09-29,2.94, -5.29, 1.33, 2.02, 1.71, 7.74, repro,
2006-09-30,1.96, -4.28, 0.55, 1.97, 1.67, 7.58, repro,
2006-10-01,2.86, -4.96, -4.51, 1.98, 1.69, 7.66, repro,
2006-10-02,3.96, -3.89, -10.50, 2.03, 1.75, 7.75, repro,
2006-10-03,4.46, -4.33, -4.52, 2.10, 1.80, 7.96, repro,
2006-10-04,5.26, -4.73, -2.87, 2.05, 1.74, 7.92, repro,
2006-10-05,6.70, -3.30, 0.78, 2.04, 1.71, 7.95, repro,
2006-10-06,2.56, -4.85, -1.36, 2.03, 1.70, 7.94, repro,
2006-10-07,-1.15, -5.27, -4.50, 2.04, 1.76, 8.09, repro,
2006-10-08,3.80, -5.83, -6.79, 2.03, 1.73, 7.96, repro,
2006-10-09,2.40, -6.15, -6.10, 2.15, 1.81, 8.42, repro,
2006-10-10,1.89, -5.75, -3.46, 2.00, 1.72, 7.86, repro,
2006-10-11,1.86, -6.23, -5.62, 2.00, 1.75, 7.92, repro,
2006-10-12,3.28, -5.89, -1.40, 1.99, 1.68, 7.69, repro,
2006-10-13,1.73, -5.56, -8.06, 1.95, 1.66, 7.55, repro,
2006-10-14,1.51, -3.04, -4.47, 1.94, 1.70, 7.70, repro,
2006-10-15,4.08, -4.72, 10.07, 1.98, 1.73, 7.82, repro,
2006-10-16,-3.60, -0.03, 3.16, 1.98, 1.69, 7.73, repro,
2006-10-17,0.17, -2.91, 7.43, 2.01, 1.73, 7.97, repro,
2006-10-18,5.12, -5.73, -9.07, 2.09, 1.84, 8.43, repro,
2006-10-19,3.51, -5.52, -1.62, 2.20, 1.84, 8.51, repro,
2006-10-20,2.82, -4.62, 1.98, 2.19, 1.86, 9.18, repro,
2006-10-21,2.45, -5.84, -1.69, 2.18, 1.89, 8.77, repro,
2006-10-22,2.92, -5.79, -2.88, 1.95, 1.73, 7.72, repro,
2006-10-23,2.58, -5.58, -4.75, 2.14, 1.89, 8.54, repro,
2006-10-24,2.84, -5.57, -3.97, 2.11, 1.78, 8.26, repro,
2006-10-25,0.91, -5.37, 5.36, 2.04, 1.79, 7.98, repro,
2006-10-26,3.45, -5.48, -5.70, 1.99, 1.81, 7.94, repro,
2006-10-27,3.80, -4.83, -8.80, 1.95, 1.77, 7.83, repro,
2006-10-28,2.27, -5.07, -8.48, 2.13, 1.81, 8.54, repro,
2006-10-29,1.67, -5.37, -2.16, 1.95, 1.72, 7.64, repro,
2006-10-30,0.83, -4.21, -2.03, 1.97, 1.73, 7.79, repro,
2006-10-31,2.47, -6.33, 0.73, 1.96, 1.74, 7.78, repro,
2006-11-01,3.03, -6.96, -5.26, 1.95, 1.74, 7.72, repro,
2006-11-02,1.40, -4.90, 4.58, 1.95, 1.73, 7.72, repro,
2006-11-03,0.35, -3.15, 2.32, 1.98, 1.79, 8.01, repro,
2006-11-04,2.75, -8.68, 2.17, 2.02, 1.79, 8.04, repro,
2006-11-05,3.11, -5.33, -3.57, 2.02, 1.77, 7.99, repro,
2006-11-06,3.22, -5.89, -3.79, 1.92, 1.69, 7.57, repro,
2006-11-07,3.36, -5.29, -5.51, 2.02, 1.80, 8.11, repro,
2006-11-08,2.90, -5.69, -3.57, 2.01, 1.75, 7.94, repro,
2006-11-09,-1.32, 0.06, 9.34, 2.01, 1.78, 8.12, repro,
2006-11-10,3.40, -4.44, -6.72, 1.99, 1.69, 7.79, repro,
2006-11-11,1.47, -4.63, -4.35, 2.04, 1.81, 8.13, repro,
2006-11-12,-0.38, -4.27, -5.49, 2.08, 1.88, 8.39, repro,
2006-11-13,2.35, -5.31, -10.81, 1.98, 1.71, 7.71, repro,
2006-11-14,6.86, -14.79, 1.33, 1.90, 1.67, 7.57, repro,
2006-11-15,3.03, -5.20, -7.15, 1.88, 1.64, 7.37, repro,
2006-11-16,3.30, -4.46, -0.09, 1.90, 1.65, 7.42, repro,
2006-11-17,-2.76, 1.54, 23.92, 1.90, 1.65, 7.44, repro,
2006-11-18,1.20, -3.60, 5.23, 1.95, 1.68, 7.50, repro,
2006-11-19,2.95, -5.54, -9.93, 1.88, 1.64, 7.31, repro,
2006-11-20,2.99, -5.12, -9.72, 1.88, 1.64, 7.34, repro,
2006-11-21,3.76, -5.00, -4.10, 1.89, 1.65, 7.42, repro,
2006-11-22,2.75, -5.01, -8.01, 1.90, 1.65, 7.39, repro,
2006-11-23,3.47, -7.16, -12.22, 1.97, 1.75, 7.73, repro,
2006-11-24,3.39, -5.93, -6.23, 1.95, 1.72, 7.63, repro,
2006-11-25,2.85, -5.71, -10.75, 1.92, 1.66, 7.43, repro,
2006-11-26,2.44, -5.16, -5.82, 1.92, 1.66, 7.50, repro,
2006-11-27,0.70, -4.74, -6.08, 1.94, 1.67, 7.60, repro,
2006-11-28,-5.18, -1.80, 0.30, 1.92, 1.68, 7.52, repro,
2006-11-29,2.44, -6.59, 4.34, 1.90, 1.66, 7.40, repro,
2006-11-30,2.58, -4.74, -12.54, 1.88, 1.65, 7.31, repro,
2006-12-01,2.28, -4.74, -11.59, 1.89, 1.65, 7.39, repro,
2006-12-02,2.11, -5.65, -11.55, 1.90, 1.66, 7.43, repro,
2006-12-03,2.87, -4.53, -11.09, 1.89, 1.64, 7.36, repro,
2006-12-04,3.22, -5.48, -16.70, 1.95, 1.66, 7.50, repro,
2006-12-05,2.74, -4.57, -12.68, 1.97, 1.79, 7.69, repro,
2006-12-06,3.07, -5.96, -9.36, 2.06, 1.85, 8.21, repro,
2006-12-07,2.47, -5.07, -5.80, 1.94, 1.74, 7.61, repro,
2006-12-08,3.22, -5.30, -4.43, 1.92, 1.72, 7.52, repro,
2006-12-09,5.76, -5.50, -9.99, 1.97, 1.73, 7.62, repro,
2006-12-10,6.09, -7.84, -16.00, 1.97, 1.75, 7.66, repro,
2006-12-11,2.08, -7.73, 5.10, 1.90, 1.69, 7.45, repro,
2006-12-12,-0.48, -3.99, -3.30, 1.97, 1.74, 7.65, repro,
2006-12-13,-4.74, 3.12, 1.71, 1.89, 1.70, 7.53, repro,
2006-12-14,1.46, -1.24, 1.10, 1.86, 1.67, 7.36, repro,
2006-12-15,4.03, -6.73, -9.41, 1.98, 1.79, 7.90, repro,
2006-12-16,3.28, -4.27, -8.48, 2.01, 1.82, 7.77, repro,
2006-12-17,-0.45, -2.66, -0.62, 2.24, 2.14, 9.09, repro,
2006-12-18,2.98, -5.72, -12.49, 2.20, 1.96, 8.88, repro,
2006-12-19,3.99, -4.77, -12.73, 2.03, 1.91, 8.21, repro,
2006-12-20,3.52, -5.30, -9.33, 2.13, 2.04, 8.53, repro,
2006-12-21,3.61, -6.19, -7.15, 1.91, 1.81, 7.57, repro,
2006-12-22,4.20, -4.97, -4.68, 2.12, 2.03, 8.56, repro,
2006-12-23,3.23, -5.14, -9.64, 2.01, 1.85, 8.05, repro,
2006-12-24,2.01, -3.47, -12.29, 1.87, 1.67, 7.40, repro,
2006-12-25,3.08, -5.46, -15.11, 1.95, 1.81, 7.67, repro,
2006-12-26,3.24, -5.68, -8.83, 2.03, 1.81, 8.00, repro,
2006-12-27,14.30, -12.06, -9.78, 2.03, 1.88, 8.25, repro,
2006-12-28,5.33, -12.07, 3.33, 2.09, 1.92, 8.49, repro,